Location: Aldenham
(51.6667°N, 0.3500°W)
Time: 21:36:45
(UTC+00:00)

Vanguard 2 Rocket - Pass Details

Date: 18 February 2026
Orbit: 553 x 3287 km, 32.9° (Epoch: 6 March)

Event Time Altitude Azimuth Distance (km) Brightness Sun altitude
Rises 09:10:35 0° 176° (S) 7,211 12.2 15.3°
Reaches altitude 10° 09:24:10 10° 141° (SE) 6,103 13.7 16.8°
Maximum altitude 09:25:29 10° 137° (SE) 6,054 13.9 16.9°
Drops below altitude 10° 09:26:48 10° 133° (SE) 6,017 13.7 17.1°
Sets 09:38:38 0° 97° (E) 6,371 12.0 18.3°
